PRIVATE WETTERSTATION BILLIGHEIM-ALLFELD                       ZURCK
Wetterdaten: Samstag, 08.11.2014
Datum Zeit Temp. A. Temp. A. min Temp. A. max Feuchte A. Luftdruck Regen Wind Richtung Richtung Sonnenschein ET Solar Taupunkt Windchill Windben Empfang
08.11.2014 00:00 6,9 C 6,8 C 6,9 C 92 % 1012,5 hPa 0,0 l/m 3,2 km/h (1 Bft) SO 135 0 min 0,000 mm 0 W/m 5,7 C 6,9 C 8,0 km/h (2 Bft) 100 %
08.11.2014 00:10 6,9 C 6,9 C 6,9 C 92 % 1012,4 hPa 0,0 l/m 4,8 km/h (1 Bft) SO 135 0 min 0,000 mm 0 W/m 5,7 C 6,9 C 8,0 km/h (2 Bft) 81 %
08.11.2014 00:20 6,9 C 6,9 C 6,9 C 92 % 1012,4 hPa 0,0 l/m 1,6 km/h (1 Bft) SO 135 0 min 0,000 mm 0 W/m 5,7 C 6,9 C 8,0 km/h (2 Bft) 100 %
08.11.2014 00:30 6,7 C 6,7 C 6,9 C 92 % 1012,6 hPa 0,0 l/m 1,6 km/h (1 Bft) SO 135 0 min 0,000 mm 0 W/m 5,5 C 6,7 C 8,0 km/h (2 Bft) 100 %
08.11.2014 00:40 6,4 C 6,3 C 6,7 C 92 % 1012,6 hPa 0,0 l/m 1,6 km/h (1 Bft) S-SO 157 0 min 0,000 mm 0 W/m 5,2 C 6,4 C 6,4 km/h (2 Bft) 100 %
08.11.2014 00:50 6,4 C 6,3 C 6,4 C 91 % 1012,6 hPa 0,0 l/m 1,6 km/h (1 Bft) SO 135 0 min 0,000 mm 0 W/m 5,0 C 6,4 C 8,0 km/h (2 Bft) 100 %
08.11.2014 01:00 6,6 C 6,4 C 6,6 C 91 % 1012,7 hPa 0,0 l/m 3,2 km/h (1 Bft) SO 135 0 min 0,000 mm 0 W/m 5,2 C 6,6 C 8,0 km/h (2 Bft) 100 %
08.11.2014 01:10 6,5 C 6,5 C 6,6 C 91 % 1012,7 hPa 0,0 l/m 1,6 km/h (1 Bft) S-SO 157 0 min 0,000 mm 0 W/m 5,1 C 6,5 C 8,0 km/h (2 Bft) 100 %
08.11.2014 01:20 6,6 C 6,5 C 6,6 C 91 % 1012,7 hPa 0,0 l/m 1,6 km/h (1 Bft) SO 135 0 min 0,000 mm 0 W/m 5,2 C 6,6 C 9,7 km/h (2 Bft) 100 %
08.11.2014 01:30 6,6 C 6,6 C 6,7 C 91 % 1012,8 hPa 0,0 l/m 1,6 km/h (1 Bft) SO 135 0 min 0,000 mm 0 W/m 5,2 C 6,6 C 9,7 km/h (2 Bft) 100 %
08.11.2014 01:40 6,4 C 6,4 C 6,6 C 92 % 1012,9 hPa 0,0 l/m 1,6 km/h (1 Bft) S-SO 157 0 min 0,000 mm 0 W/m 5,2 C 6,4 C 6,4 km/h (2 Bft) 98 %
08.11.2014 01:50 6,3 C 6,3 C 6,5 C 91 % 1012,9 hPa 0,0 l/m 1,6 km/h (1 Bft) S-SO 157 0 min 0,000 mm 0 W/m 4,9 C 6,3 C 8,0 km/h (2 Bft) 100 %
08.11.2014 02:00 6,4 C 6,3 C 6,4 C 92 % 1013,0 hPa 0,0 l/m 1,6 km/h (1 Bft) S-SO 157 0 min 0,000 mm 0 W/m 5,2 C 6,4 C 4,8 km/h (1 Bft) 100 %
08.11.2014 02:10 6,5 C 6,4 C 6,5 C 92 % 1012,9 hPa 0,0 l/m 1,6 km/h (1 Bft) S-SO 157 0 min 0,000 mm 0 W/m 5,3 C 6,5 C 4,8 km/h (1 Bft) 100 %
08.11.2014 02:20 6,5 C 6,5 C 6,5 C 92 % 1012,9 hPa 0,0 l/m 1,6 km/h (1 Bft) SO 135 0 min 0,000 mm 0 W/m 5,3 C 6,5 C 4,8 km/h (1 Bft) 100 %
08.11.2014 02:30 6,4 C 6,4 C 6,5 C 92 % 1012,9 hPa 0,0 l/m 1,6 km/h (1 Bft) S-SO 157 0 min 0,000 mm 0 W/m 5,2 C 6,4 C 4,8 km/h (1 Bft) 100 %
08.11.2014 02:40 6,3 C 6,3 C 6,4 C 92 % 1013,0 hPa 0,0 l/m 1,6 km/h (1 Bft) S-SO 157 0 min 0,000 mm 0 W/m 5,1 C 6,3 C 6,4 km/h (2 Bft) 100 %
08.11.2014 02:50 6,3 C 6,3 C 6,3 C 92 % 1012,9 hPa 0,0 l/m 3,2 km/h (1 Bft) S-SO 157 0 min 0,000 mm 0 W/m 5,1 C 6,3 C 8,0 km/h (2 Bft) 99 %
08.11.2014 03:00 6,1 C 6,1 C 6,3 C 92 % 1013,1 hPa 0,0 l/m 1,6 km/h (1 Bft) S-SO 157 0 min 0,000 mm 0 W/m 4,9 C 6,1 C 6,4 km/h (2 Bft) 100 %
08.11.2014 03:10 6,0 C 6,0 C 6,1 C 91 % 1013,1 hPa 0,0 l/m 1,6 km/h (1 Bft) S-SO 157 0 min 0,000 mm 0 W/m 4,6 C 6,0 C 4,8 km/h (1 Bft) 100 %
08.11.2014 03:20 6,0 C 6,0 C 6,0 C 91 % 1013,2 hPa 0,0 l/m 1,6 km/h (1 Bft) S-SO 157 0 min 0,000 mm 0 W/m 4,6 C 6,0 C 4,8 km/h (1 Bft) 100 %
08.11.2014 03:30 6,1 C 6,0 C 6,1 C 91 % 1013,2 hPa 0,0 l/m 1,6 km/h (1 Bft) SO 135 0 min 0,000 mm 0 W/m 4,7 C 6,1 C 4,8 km/h (1 Bft) 100 %
08.11.2014 03:40 6,1 C 6,1 C 6,1 C 91 % 1013,2 hPa 0,0 l/m 1,6 km/h (1 Bft) SO 135 0 min 0,000 mm 0 W/m 4,7 C 6,1 C 8,0 km/h (2 Bft) 100 %
08.11.2014 03:50 6,1 C 6,1 C 6,1 C 92 % 1013,2 hPa 0,0 l/m 1,6 km/h (1 Bft) S-SO 157 0 min 0,000 mm 0 W/m 4,9 C 6,1 C 6,4 km/h (2 Bft) 100 %
08.11.2014 04:00 6,1 C 6,1 C 6,1 C 92 % 1013,1 hPa 0,0 l/m 1,6 km/h (1 Bft) S-SO 157 0 min 0,000 mm 0 W/m 4,9 C 6,1 C 8,0 km/h (2 Bft) 100 %
08.11.2014 04:10 6,1 C 6,1 C 6,1 C 92 % 1013,1 hPa 0,0 l/m 0,0 km/h (0 Bft) SO 135 0 min 0,000 mm 0 W/m 4,9 C 6,1 C 8,0 km/h (2 Bft) 100 %
08.11.2014 04:20 6,1 C 6,1 C 6,1 C 92 % 1013,1 hPa 0,0 l/m 0,0 km/h (0 Bft) S-SO 157 0 min 0,000 mm 0 W/m 4,9 C 6,1 C 1,6 km/h (1 Bft) 99 %
08.11.2014 04:30 5,8 C 5,8 C 6,1 C 91 % 1013,1 hPa 0,0 l/m 3,2 km/h (1 Bft) SO 135 0 min 0,000 mm 0 W/m 4,4 C 5,8 C 6,4 km/h (2 Bft) 100 %
08.11.2014 04:40 5,5 C 5,5 C 5,8 C 92 % 1013,3 hPa 0,0 l/m 1,6 km/h (1 Bft) S-SO 157 0 min 0,000 mm 0 W/m 4,3 C 5,5 C 4,8 km/h (1 Bft) 100 %
08.11.2014 04:50 5,7 C 5,5 C 5,7 C 91 % 1013,4 hPa 0,0 l/m 0,0 km/h (0 Bft) S-SO 157 0 min 0,000 mm 0 W/m 4,3 C 5,7 C 1,6 km/h (1 Bft) 100 %
08.11.2014 05:00 5,6 C 5,6 C 5,7 C 91 % 1013,3 hPa 0,0 l/m 3,2 km/h (1 Bft) S-SO 157 0 min 0,000 mm 0 W/m 4,2 C 5,6 C 9,7 km/h (2 Bft) 100 %
08.11.2014 05:10 5,1 C 5,1 C 5,6 C 92 % 1013,6 hPa 0,0 l/m 1,6 km/h (1 Bft) SW 225 0 min 0,000 mm 0 W/m 3,9 C 5,1 C 6,4 km/h (2 Bft) 100 %
08.11.2014 05:20 5,1 C 5,0 C 5,1 C 91 % 1013,5 hPa 0,0 l/m 1,6 km/h (1 Bft) S-SO 157 0 min 0,000 mm 0 W/m 3,8 C 5,1 C 8,0 km/h (2 Bft) 100 %
08.11.2014 05:30 5,6 C 5,1 C 5,6 C 91 % 1013,4 hPa 0,0 l/m 3,2 km/h (1 Bft) S-SO 157 0 min 0,000 mm 0 W/m 4,2 C 5,6 C 8,0 km/h (2 Bft) 100 %
08.11.2014 05:40 6,1 C 5,6 C 6,1 C 91 % 1013,5 hPa 0,0 l/m 3,2 km/h (1 Bft) SO 135 0 min 0,000 mm 0 W/m 4,7 C 6,1 C 9,7 km/h (2 Bft) 100 %
08.11.2014 05:50 5,8 C 5,8 C 6,1 C 92 % 1013,6 hPa 0,0 l/m 1,6 km/h (1 Bft) S-SO 157 0 min 0,000 mm 0 W/m 4,6 C 5,8 C 6,4 km/h (2 Bft) 89 %
08.11.2014 06:00 5,7 C 5,7 C 5,8 C 91 % 1013,6 hPa 0,0 l/m 0,0 km/h (0 Bft) S-SO 157 0 min 0,000 mm 0 W/m 4,3 C 5,7 C 1,6 km/h (1 Bft) 100 %
08.11.2014 06:10 5,8 C 5,7 C 5,8 C 91 % 1013,7 hPa 0,0 l/m 1,6 km/h (1 Bft) S-SO 157 0 min 0,000 mm 0 W/m 4,4 C 5,8 C 8,0 km/h (2 Bft) 100 %
08.11.2014 06:20 6,1 C 5,8 C 6,1 C 91 % 1013,7 hPa 0,0 l/m 3,2 km/h (1 Bft) S-SO 157 0 min 0,000 mm 0 W/m 4,7 C 6,1 C 8,0 km/h (2 Bft) 100 %
08.11.2014 06:30 6,2 C 6,1 C 6,2 C 91 % 1013,8 hPa 0,0 l/m 1,6 km/h (1 Bft) S-SO 157 0 min 0,000 mm 0 W/m 4,8 C 6,2 C 6,4 km/h (2 Bft) 100 %
08.11.2014 06:40 6,2 C 6,2 C 6,3 C 91 % 1013,9 hPa 0,0 l/m 1,6 km/h (1 Bft) S-SO 157 0 min 0,000 mm 0 W/m 4,8 C 6,2 C 6,4 km/h (2 Bft) 100 %
08.11.2014 06:50 6,3 C 6,2 C 6,3 C 92 % 1014,1 hPa 0,0 l/m 0,0 km/h (0 Bft) S-SO 157 0 min 0,000 mm 0 W/m 5,1 C 6,3 C 1,6 km/h (1 Bft) 100 %
08.11.2014 07:00 6,3 C 6,3 C 6,3 C 92 % 1014,3 hPa 0,0 l/m 0,0 km/h (0 Bft) S-SO 157 0 min 0,000 mm 0 W/m 5,1 C 6,3 C 3,2 km/h (1 Bft) 100 %
08.11.2014 07:10 6,3 C 6,3 C 6,3 C 92 % 1014,4 hPa 0,0 l/m 0,0 km/h (0 Bft) S-SO 157 0 min 0,000 mm 0 W/m 5,1 C 6,3 C 1,6 km/h (1 Bft) 100 %
08.11.2014 07:20 6,4 C 6,3 C 6,4 C 92 % 1014,5 hPa 0,0 l/m 0,0 km/h (0 Bft) S-SO 157 0 min 0,000 mm 0 W/m 5,2 C 6,4 C 1,6 km/h (1 Bft) 99 %
08.11.2014 07:30 6,4 C 6,4 C 6,4 C 92 % 1014,4 hPa 0,0 l/m 1,6 km/h (1 Bft) SO 135 0 min 0,000 mm 0 W/m 5,2 C 6,4 C 6,4 km/h (2 Bft) 99 %
08.11.2014 07:40 6,4 C 6,4 C 6,4 C 92 % 1014,6 hPa 0,0 l/m 1,6 km/h (1 Bft) S-SO 157 0 min 0,000 mm 0 W/m 5,2 C 6,4 C 6,4 km/h (2 Bft) 100 %
08.11.2014 07:50 6,5 C 6,4 C 6,5 C 92 % 1014,8 hPa 0,0 l/m 0,0 km/h (0 Bft) S-SO 157 0 min 0,000 mm 5 W/m 5,3 C 6,5 C 4,8 km/h (1 Bft) 100 %
08.11.2014 08:00 6,5 C 6,5 C 6,5 C 92 % 1014,9 hPa 0,0 l/m 1,6 km/h (1 Bft) S-SO 157 0 min 0,000 mm 7 W/m 5,3 C 6,5 C 6,4 km/h (2 Bft) 100 %
08.11.2014 08:10 6,6 C 6,5 C 6,6 C 92 % 1015,1 hPa 0,0 l/m 0,0 km/h (0 Bft) S-SO 157 0 min 0,000 mm 14 W/m 5,4 C 6,6 C 4,8 km/h (1 Bft) 89 %
08.11.2014 08:20 6,6 C 6,5 C 6,6 C 92 % 1015,1 hPa 0,0 l/m 0,0 km/h (0 Bft) S-SO 157 0 min 0,000 mm 21 W/m 5,4 C 6,6 C 4,8 km/h (1 Bft) 100 %
08.11.2014 08:30 6,6 C 6,6 C 6,6 C 92 % 1015,4 hPa 0,0 l/m 1,6 km/h (1 Bft) S-SO 157 0 min 0,000 mm 25 W/m 5,4 C 6,6 C 4,8 km/h (1 Bft) 100 %
08.11.2014 08:40 6,6 C 6,6 C 6,7 C 92 % 1015,4 hPa 0,0 l/m 0,0 km/h (0 Bft) S-SO 157 0 min 0,000 mm 30 W/m 5,4 C 6,6 C 4,8 km/h (1 Bft) 100 %
08.11.2014 08:50 6,7 C 6,6 C 6,7 C 91 % 1015,4 hPa 0,0 l/m 0,0 km/h (0 Bft) S-SO 157 0 min 0,000 mm 33 W/m 5,3 C 6,7 C 4,8 km/h (1 Bft) 100 %
08.11.2014 09:00 6,7 C 6,7 C 6,7 C 91 % 1015,4 hPa 0,0 l/m 1,6 km/h (1 Bft) S-SO 157 0 min 0,000 mm 35 W/m 5,3 C 6,7 C 6,4 km/h (2 Bft) 100 %
08.11.2014 09:10 6,8 C 6,7 C 6,8 C 91 % 1015,5 hPa 0,0 l/m 0,0 km/h (0 Bft) S-SO 157 0 min 0,000 mm 44 W/m 5,4 C 6,8 C 1,6 km/h (1 Bft) 100 %
08.11.2014 09:20 6,9 C 6,8 C 6,9 C 91 % 1015,5 hPa 0,0 l/m 1,6 km/h (1 Bft) S 180 0 min 0,000 mm 60 W/m 5,5 C 6,9 C 8,0 km/h (2 Bft) 99 %
08.11.2014 09:30 7,1 C 6,9 C 7,1 C 91 % 1015,5 hPa 0,0 l/m 1,6 km/h (1 Bft) S-SO 157 0 min 0,000 mm 97 W/m 5,7 C 7,1 C 8,0 km/h (2 Bft) 100 %
08.11.2014 09:40 7,3 C 7,1 C 7,3 C 91 % 1015,5 hPa 0,0 l/m 1,6 km/h (1 Bft) S-SO 157 0 min 0,000 mm 102 W/m 5,9 C 7,3 C 6,4 km/h (2 Bft) 100 %
08.11.2014 09:50 7,4 C 7,3 C 7,4 C 90 % 1015,3 hPa 0,0 l/m 1,6 km/h (1 Bft) S-SO 157 10 min 0,000 mm 220 W/m 5,9 C 7,4 C 6,4 km/h (2 Bft) 100 %
08.11.2014 10:00 8,3 C 7,4 C 8,3 C 90 % 1015,3 hPa 0,0 l/m 1,6 km/h (1 Bft) S-SW 202 10 min 0,051 mm 348 W/m 6,8 C 8,3 C 8,0 km/h (2 Bft) 100 %
08.11.2014 10:10 8,4 C 8,3 C 8,5 C 88 % 1015,4 hPa 0,0 l/m 4,8 km/h (1 Bft) S-SW 202 10 min 0,000 mm 195 W/m 6,5 C 8,4 C 11,3 km/h (2 Bft) 100 %
08.11.2014 10:20 8,3 C 8,2 C 8,3 C 88 % 1015,2 hPa 0,0 l/m 1,6 km/h (1 Bft) SO 135 10 min 0,000 mm 320 W/m 6,4 C 8,3 C 8,0 km/h (2 Bft) 100 %
08.11.2014 10:30 9,1 C 8,4 C 9,1 C 88 % 1015,3 hPa 0,0 l/m 3,2 km/h (1 Bft) S-SO 157 10 min 0,000 mm 330 W/m 7,2 C 9,1 C 14,5 km/h (3 Bft) 100 %
08.11.2014 10:40 9,5 C 9,1 C 9,5 C 86 % 1015,3 hPa 0,0 l/m 4,8 km/h (1 Bft) S 180 10 min 0,000 mm 336 W/m 7,3 C 9,5 C 14,5 km/h (3 Bft) 100 %
08.11.2014 10:50 9,6 C 9,5 C 9,6 C 86 % 1015,4 hPa 0,0 l/m 3,2 km/h (1 Bft) S-SO 157 10 min 0,000 mm 346 W/m 7,4 C 9,6 C 11,3 km/h (2 Bft) 100 %
08.11.2014 11:00 10,0 C 9,6 C 10,0 C 86 % 1015,4 hPa 0,0 l/m 3,2 km/h (1 Bft) S-SW 202 10 min 0,127 mm 362 W/m 7,8 C 10,0 C 11,3 km/h (2 Bft) 100 %
08.11.2014 11:10 10,3 C 10,0 C 10,3 C 84 % 1015,5 hPa 0,0 l/m 0,0 km/h (0 Bft) S-SW 202 10 min 0,000 mm 381 W/m 7,7 C 10,3 C 8,0 km/h (2 Bft) 100 %
08.11.2014 11:20 10,3 C 10,3 C 10,4 C 83 % 1015,5 hPa 0,0 l/m 4,8 km/h (1 Bft) S-SO 157 10 min 0,000 mm 387 W/m 7,5 C 10,3 C 9,7 km/h (2 Bft) 100 %
08.11.2014 11:30 10,1 C 10,1 C 10,3 C 83 % 1015,4 hPa 0,0 l/m 4,8 km/h (1 Bft) SO 135 10 min 0,000 mm 429 W/m 7,3 C 10,1 C 11,3 km/h (2 Bft) 100 %
08.11.2014 11:40 10,7 C 10,1 C 10,7 C 83 % 1015,3 hPa 0,0 l/m 3,2 km/h (1 Bft) S-SW 202 10 min 0,000 mm 394 W/m 7,9 C 10,7 C 11,3 km/h (2 Bft) 100 %
08.11.2014 11:50 10,9 C 10,7 C 10,9 C 81 % 1015,1 hPa 0,0 l/m 4,8 km/h (1 Bft) S-SO 157 10 min 0,000 mm 390 W/m 7,8 C 10,9 C 9,7 km/h (2 Bft) 100 %
08.11.2014 12:00 11,1 C 10,9 C 11,1 C 83 % 1015,0 hPa 0,0 l/m 3,2 km/h (1 Bft) S-SW 202 10 min 0,152 mm 392 W/m 8,3 C 11,1 C 14,5 km/h (3 Bft) 100 %
08.11.2014 12:10 11,5 C 11,1 C 11,5 C 81 % 1014,9 hPa 0,0 l/m 6,4 km/h (2 Bft) S-SW 202 10 min 0,000 mm 392 W/m 8,4 C 11,5 C 16,1 km/h (3 Bft) 100 %
08.11.2014 12:20 11,8 C 11,1 C 11,8 C 80 % 1014,8 hPa 0,0 l/m 4,3 km/h (1 Bft) S 178 10 min 0,000 mm 163 W/m 8,5 C 11,8 C 8,0 km/h (2 Bft) 96 %
08.11.2014 12:30 11,9 C 11,8 C 11,9 C 80 % 1014,7 hPa 0,0 l/m 3,4 km/h (1 Bft) SO 139 0 min 0,000 mm 134 W/m 8,6 C 11,9 C 11,3 km/h (2 Bft) 98 %
08.11.2014 12:40 12,0 C 11,9 C 12,1 C 78 % 1014,7 hPa 0,0 l/m 1,9 km/h (1 Bft) S-SW 193 10 min 0,000 mm 285 W/m 8,3 C 12,0 C 9,7 km/h (2 Bft) 97 %
08.11.2014 12:50 12,3 C 12,0 C 12,3 C 78 % 1014,4 hPa 0,0 l/m 1,5 km/h (1 Bft) SW 228 10 min 0,000 mm 381 W/m 8,6 C 12,3 C 9,7 km/h (2 Bft) 98 %
08.11.2014 13:00 12,4 C 12,3 C 12,4 C 76 % 1014,4 hPa 0,0 l/m 1,0 km/h (0 Bft) SW 233 0 min 0,000 mm 88 W/m 8,3 C 12,4 C 8,0 km/h (2 Bft) 97 %
08.11.2014 13:10 12,4 C 12,4 C 12,5 C 76 % 1014,2 hPa 0,0 l/m 1,5 km/h (1 Bft) S 186 10 min 0,127 mm 267 W/m 8,3 C 12,4 C 12,9 km/h (3 Bft) 97 %
08.11.2014 13:20 12,6 C 12,4 C 12,6 C 74 % 1014,1 hPa 0,0 l/m 2,6 km/h (1 Bft) SW 223 0 min 0,000 mm 95 W/m 8,1 C 12,6 C 9,7 km/h (2 Bft) 97 %
08.11.2014 13:30 12,7 C 12,6 C 12,7 C 74 % 1013,9 hPa 0,0 l/m 2,1 km/h (1 Bft) SW 215 10 min 0,000 mm 262 W/m 8,2 C 12,7 C 9,7 km/h (2 Bft) 97 %
08.11.2014 13:40 12,9 C 12,7 C 12,9 C 73 % 1013,9 hPa 0,0 l/m 0,9 km/h (0 Bft) SW 221 0 min 0,000 mm 144 W/m 8,2 C 12,9 C 8,0 km/h (2 Bft) 98 %
08.11.2014 13:50 13,1 C 12,9 C 13,1 C 71 % 1013,7 hPa 0,0 l/m 3,8 km/h (1 Bft) W-SW 253 10 min 0,000 mm 322 W/m 8,0 C 13,1 C 11,3 km/h (2 Bft) 97 %
08.11.2014 14:00 13,2 C 13,1 C 13,3 C 72 % 1013,7 hPa 0,0 l/m 1,8 km/h (1 Bft) S-SW 200 0 min 0,000 mm 97 W/m 8,3 C 13,2 C 8,0 km/h (2 Bft) 98 %
08.11.2014 14:10 13,3 C 13,2 C 13,3 C 71 % 1013,6 hPa 0,0 l/m 1,9 km/h (1 Bft) W-SW 254 10 min 0,127 mm 299 W/m 8,2 C 13,3 C 8,0 km/h (2 Bft) 97 %
08.11.2014 14:20 13,2 C 13,2 C 13,3 C 69 % 1013,5 hPa 0,0 l/m 0,5 km/h (0 Bft) S-SO 153 10 min 0,000 mm 281 W/m 7,6 C 13,2 C 6,4 km/h (2 Bft) 99 %
08.11.2014 14:30 13,2 C 13,1 C 13,2 C 70 % 1013,6 hPa 0,0 l/m 2,3 km/h (1 Bft) SW 219 10 min 0,000 mm 239 W/m 7,9 C 13,2 C 9,7 km/h (2 Bft) 100 %
08.11.2014 14:40 13,1 C 13,1 C 13,2 C 70 % 1013,5 hPa 0,0 l/m 1,9 km/h (1 Bft) SO 129 10 min 0,000 mm 244 W/m 7,8 C 13,1 C 8,0 km/h (2 Bft) 100 %
08.11.2014 14:50 13,1 C 13,0 C 13,1 C 68 % 1013,4 hPa 0,0 l/m 0,2 km/h (0 Bft) SO 135 0 min 0,000 mm 40 W/m 7,3 C 13,1 C 4,8 km/h (1 Bft) 100 %
08.11.2014 15:00 13,3 C 13,1 C 13,3 C 67 % 1013,1 hPa 0,0 l/m 0,4 km/h (0 Bft) S-SW 209 0 min 0,102 mm 37 W/m 7,3 C 13,3 C 3,2 km/h (1 Bft) 99 %
08.11.2014 15:10 13,3 C 13,3 C 13,3 C 66 % 1013,1 hPa 0,0 l/m 0,0 km/h (0 Bft) S-SW 209 0 min 0,000 mm 30 W/m 7,1 C 13,3 C 1,6 km/h (1 Bft) 100 %
08.11.2014 15:20 13,3 C 13,3 C 13,3 C 63 % 1013,0 hPa 0,0 l/m 0,2 km/h (0 Bft) S 186 0 min 0,000 mm 33 W/m 6,4 C 13,3 C 4,8 km/h (1 Bft) 100 %
08.11.2014 15:30 13,2 C 13,2 C 13,4 C 64 % 1012,9 hPa 0,0 l/m 0,4 km/h (0 Bft) SO 131 0 min 0,000 mm 33 W/m 6,5 C 13,2 C 4,8 km/h (1 Bft) 97 %
08.11.2014 15:40 12,9 C 12,9 C 13,2 C 64 % 1012,9 hPa 0,0 l/m 0,2 km/h (0 Bft) SO 131 0 min 0,000 mm 32 W/m 6,3 C 12,9 C 6,4 km/h (2 Bft) 98 %
08.11.2014 15:50 12,8 C 12,8 C 12,9 C 65 % 1012,6 hPa 0,0 l/m 0,0 km/h (0 Bft) SO 131 0 min 0,000 mm 26 W/m 6,4 C 12,8 C 1,6 km/h (1 Bft) 97 %
08.11.2014 16:00 12,5 C 12,5 C 12,8 C 68 % 1012,3 hPa 0,0 l/m 0,2 km/h (0 Bft) SO 129 0 min 0,025 mm 21 W/m 6,8 C 12,5 C 4,8 km/h (1 Bft) 98 %
08.11.2014 16:10 12,2 C 12,2 C 12,5 C 70 % 1012,2 hPa 0,0 l/m 0,0 km/h (0 Bft) SO 129 0 min 0,000 mm 18 W/m 6,9 C 12,2 C 0,0 km/h (0 Bft) 97 %
08.11.2014 16:20 11,8 C 11,8 C 12,2 C 71 % 1012,3 hPa 0,0 l/m 0,0 km/h (0 Bft) SO 129 0 min 0,000 mm 16 W/m 6,7 C 11,8 C 0,0 km/h (0 Bft) 97 %
08.11.2014 16:30 11,4 C 11,4 C 11,8 C 72 % 1012,3 hPa 0,0 l/m 0,0 km/h (0 Bft) SO 129 0 min 0,000 mm 7 W/m 6,5 C 11,4 C 1,6 km/h (1 Bft) 97 %
08.11.2014 16:40 11,1 C 11,1 C 11,4 C 74 % 1012,3 hPa 0,0 l/m 0,0 km/h (0 Bft) SO 129 0 min 0,000 mm 5 W/m 6,6 C 11,1 C 0,0 km/h (0 Bft) 99 %
08.11.2014 16:50 10,6 C 10,6 C 11,1 C 75 % 1012,2 hPa 0,0 l/m 0,0 km/h (0 Bft) SO 129 0 min 0,000 mm 0 W/m 6,4 C 10,6 C 0,0 km/h (0 Bft) 89 %
08.11.2014 17:00 10,2 C 10,2 C 10,6 C 77 % 1012,1 hPa 0,0 l/m 0,0 km/h (0 Bft) SO 129 0 min 0,000 mm 0 W/m 6,4 C 10,2 C 0,0 km/h (0 Bft) 97 %
08.11.2014 17:10 9,8 C 9,8 C 10,2 C 79 % 1012,0 hPa 0,0 l/m 0,0 km/h (0 Bft) SO 129 0 min 0,000 mm 0 W/m 6,3 C 9,8 C 1,6 km/h (1 Bft) 98 %
08.11.2014 17:20 9,6 C 9,6 C 9,8 C 79 % 1012,0 hPa 0,0 l/m 0,1 km/h (0 Bft) SO 129 0 min 0,000 mm 0 W/m 6,1 C 9,6 C 1,6 km/h (1 Bft) 97 %
08.11.2014 17:30 9,3 C 9,3 C 9,6 C 80 % 1012,1 hPa 0,0 l/m 0,3 km/h (0 Bft) O 92 0 min 0,000 mm 0 W/m 6,0 C 9,3 C 4,8 km/h (1 Bft) 97 %
08.11.2014 17:40 9,2 C 9,2 C 9,3 C 81 % 1012,1 hPa 0,0 l/m 0,0 km/h (0 Bft) O 92 0 min 0,000 mm 0 W/m 6,1 C 9,2 C 1,6 km/h (1 Bft) 98 %
08.11.2014 17:50 9,1 C 9,1 C 9,2 C 81 % 1012,0 hPa 0,0 l/m 0,1 km/h (0 Bft) N-NO 31 0 min 0,000 mm 0 W/m 6,0 C 9,1 C 4,8 km/h (1 Bft) 97 %
08.11.2014 18:00 8,9 C 8,9 C 9,1 C 82 % 1011,8 hPa 0,0 l/m 0,4 km/h (0 Bft) O 82 0 min 0,026 mm 0 W/m 6,0 C 8,9 C 3,2 km/h (1 Bft) 98 %
08.11.2014 18:10 8,9 C 8,9 C 8,9 C 82 % 1011,8 hPa 0,0 l/m 0,3 km/h (0 Bft) NO 51 0 min 0,000 mm 0 W/m 6,0 C 8,9 C 4,8 km/h (1 Bft) 88 %
08.11.2014 18:20 8,9 C 8,9 C 8,9 C 82 % 1012,0 hPa 0,0 l/m 0,1 km/h (0 Bft) NO 46 0 min 0,000 mm 0 W/m 6,0 C 8,9 C 4,8 km/h (1 Bft) 98 %
08.11.2014 18:30 8,8 C 8,8 C 8,9 C 82 % 1011,7 hPa 0,0 l/m 0,5 km/h (0 Bft) N 351 0 min 0,000 mm 0 W/m 5,9 C 8,8 C 6,4 km/h (2 Bft) 97 %
08.11.2014 18:40 8,7 C 8,7 C 8,8 C 83 % 1011,5 hPa 0,0 l/m 0,3 km/h (0 Bft) O-NO 76 0 min 0,000 mm 0 W/m 6,0 C 8,7 C 8,0 km/h (2 Bft) 98 %
08.11.2014 18:50 8,6 C 8,6 C 8,7 C 83 % 1011,6 hPa 0,0 l/m 0,6 km/h (0 Bft) N-NO 16 0 min 0,000 mm 0 W/m 5,9 C 8,6 C 4,8 km/h (1 Bft) 97 %
08.11.2014 19:00 8,6 C 8,6 C 8,6 C 83 % 1011,5 hPa 0,0 l/m 0,5 km/h (0 Bft) O-NO 70 0 min 0,000 mm 0 W/m 5,9 C 8,6 C 6,4 km/h (2 Bft) 97 %
08.11.2014 19:10 8,5 C 8,5 C 8,6 C 84 % 1011,6 hPa 0,0 l/m 0,5 km/h (0 Bft) O 101 0 min 0,000 mm 0 W/m 6,0 C 8,5 C 8,0 km/h (2 Bft) 98 %
08.11.2014 19:20 8,3 C 8,3 C 8,5 C 84 % 1011,6 hPa 0,0 l/m 0,5 km/h (0 Bft) NO 48 0 min 0,000 mm 0 W/m 5,8 C 8,3 C 6,4 km/h (2 Bft) 97 %
08.11.2014 19:30 8,3 C 8,3 C 8,3 C 85 % 1011,4 hPa 0,0 l/m 1,2 km/h (1 Bft) O-SO 109 0 min 0,000 mm 0 W/m 5,9 C 8,3 C 6,4 km/h (2 Bft) 98 %
08.11.2014 19:40 8,4 C 8,2 C 8,4 C 85 % 1011,3 hPa 0,0 l/m 1,6 km/h (1 Bft) O 82 0 min 0,000 mm 0 W/m 6,0 C 8,4 C 9,7 km/h (2 Bft) 97 %
08.11.2014 19:50 8,4 C 8,4 C 8,4 C 85 % 1011,2 hPa 0,0 l/m 0,3 km/h (0 Bft) O-SO 118 0 min 0,000 mm 0 W/m 6,0 C 8,4 C 6,4 km/h (2 Bft) 97 %
08.11.2014 20:00 8,3 C 8,3 C 8,4 C 85 % 1011,2 hPa 0,0 l/m 0,8 km/h (0 Bft) O 101 0 min 0,000 mm 0 W/m 5,9 C 8,3 C 9,7 km/h (2 Bft) 98 %
08.11.2014 20:10 8,2 C 8,2 C 8,3 C 85 % 1011,1 hPa 0,0 l/m 0,6 km/h (0 Bft) SO 136 0 min 0,000 mm 0 W/m 5,8 C 8,2 C 8,0 km/h (2 Bft) 97 %
08.11.2014 20:20 8,0 C 8,0 C 8,2 C 86 % 1011,0 hPa 0,0 l/m 0,2 km/h (0 Bft) O-NO 71 0 min 0,000 mm 0 W/m 5,8 C 8,0 C 4,8 km/h (1 Bft) 98 %
08.11.2014 20:30 7,8 C 7,8 C 8,0 C 87 % 1011,0 hPa 0,0 l/m 0,7 km/h (0 Bft) SO 134 0 min 0,000 mm 0 W/m 5,8 C 7,8 C 8,0 km/h (2 Bft) 97 %
08.11.2014 20:40 7,6 C 7,6 C 7,8 C 86 % 1010,9 hPa 0,0 l/m 0,9 km/h (0 Bft) NW 325 0 min 0,000 mm 0 W/m 5,4 C 7,6 C 6,4 km/h (2 Bft) 98 %
08.11.2014 20:50 6,9 C 6,9 C 7,6 C 87 % 1010,9 hPa 0,0 l/m 0,6 km/h (0 Bft) N 360 0 min 0,000 mm 0 W/m 4,9 C 6,9 C 6,4 km/h (2 Bft) 97 %
08.11.2014 21:00 6,5 C 6,5 C 6,9 C 89 % 1010,8 hPa 0,0 l/m 0,5 km/h (0 Bft) N 360 0 min 0,000 mm 0 W/m 4,8 C 6,5 C 6,4 km/h (2 Bft) 97 %
08.11.2014 21:10 6,3 C 6,3 C 6,5 C 90 % 1010,8 hPa 0,0 l/m 0,0 km/h (0 Bft) NW 315 0 min 0,000 mm 0 W/m 4,8 C 6,3 C 3,2 km/h (1 Bft) 100 %
08.11.2014 21:20 6,2 C 6,2 C 6,3 C 90 % 1010,8 hPa 0,0 l/m 0,0 km/h (0 Bft) N-NW 337 0 min 0,000 mm 0 W/m 4,7 C 6,2 C 4,8 km/h (1 Bft) 100 %
08.11.2014 21:30 6,0 C 6,0 C 6,2 C 90 % 1011,0 hPa 0,0 l/m 1,6 km/h (1 Bft) NW 315 0 min 0,000 mm 0 W/m 4,5 C 6,0 C 4,8 km/h (1 Bft) 100 %
08.11.2014 21:40 5,8 C 5,8 C 5,9 C 90 % 1011,0 hPa 0,0 l/m 0,0 km/h (0 Bft) NW 315 0 min 0,000 mm 0 W/m 4,3 C 5,8 C 3,2 km/h (1 Bft) 100 %
08.11.2014 21:50 5,7 C 5,7 C 5,8 C 90 % 1011,0 hPa 0,0 l/m 1,6 km/h (1 Bft) N-NW 337 0 min 0,000 mm 0 W/m 4,2 C 5,7 C 3,2 km/h (1 Bft) 90 %
08.11.2014 22:00 5,6 C 5,6 C 5,7 C 91 % 1010,9 hPa 0,0 l/m 0,0 km/h (0 Bft) N-NW 337 0 min 0,000 mm 0 W/m 4,2 C 5,6 C 4,8 km/h (1 Bft) 100 %
08.11.2014 22:10 5,6 C 5,6 C 5,6 C 91 % 1010,8 hPa 0,0 l/m 0,0 km/h (0 Bft) N 360 0 min 0,000 mm 0 W/m 4,2 C 5,6 C 1,6 km/h (1 Bft) 100 %
08.11.2014 22:20 5,5 C 5,5 C 5,6 C 91 % 1010,7 hPa 0,0 l/m 0,0 km/h (0 Bft) N 360 0 min 0,000 mm 0 W/m 4,2 C 5,5 C 1,6 km/h (1 Bft) 100 %
08.11.2014 22:30 5,4 C 5,4 C 5,5 C 91 % 1010,7 hPa 0,0 l/m 0,0 km/h (0 Bft) O-NO 67 0 min 0,000 mm 0 W/m 4,1 C 5,4 C 3,2 km/h (1 Bft) 100 %
08.11.2014 22:40 5,2 C 5,2 C 5,4 C 91 % 1010,7 hPa 0,0 l/m 1,6 km/h (1 Bft) N-NW 337 0 min 0,000 mm 0 W/m 3,9 C 5,2 C 4,8 km/h (1 Bft) 100 %
08.11.2014 22:50 4,9 C 4,9 C 5,1 C 91 % 1010,6 hPa 0,0 l/m 0,0 km/h (0 Bft) N-NW 337 0 min 0,000 mm 0 W/m 3,6 C 4,9 C 4,8 km/h (1 Bft) 100 %
08.11.2014 23:00 4,8 C 4,8 C 4,9 C 91 % 1010,5 hPa 0,0 l/m 0,0 km/h (0 Bft) N 360 0 min 0,000 mm 0 W/m 3,5 C 4,8 C 1,6 km/h (1 Bft) 100 %
08.11.2014 23:10 4,7 C 4,7 C 4,8 C 91 % 1010,4 hPa 0,0 l/m 0,0 km/h (0 Bft) N 360 0 min 0,000 mm 0 W/m 3,4 C 4,7 C 4,8 km/h (1 Bft) 100 %
08.11.2014 23:20 4,8 C 4,7 C 4,8 C 91 % 1010,5 hPa 0,0 l/m 0,0 km/h (0 Bft) N 360 0 min 0,000 mm 0 W/m 3,5 C 4,8 C 3,2 km/h (1 Bft) 100 %
08.11.2014 23:30 4,8 C 4,8 C 4,8 C 91 % 1010,5 hPa 0,0 l/m 0,0 km/h (0 Bft) N 360 0 min 0,000 mm 0 W/m 3,5 C 4,8 C 4,8 km/h (1 Bft) 100 %
08.11.2014 23:40 5,1 C 4,8 C 5,1 C 91 % 1010,4 hPa 0,0 l/m 0,0 km/h (0 Bft) N-NO 22 0 min 0,000 mm 0 W/m 3,8 C 5,1 C 1,6 km/h (1 Bft) 100 %
08.11.2014 23:50 5,4 C 5,1 C 5,4 C 91 % 1010,3 hPa 0,0 l/m 0,0 km/h (0 Bft) N-NO 22 0 min 0,000 mm 0 W/m 4,1 C 5,4 C 4,8 km/h (1 Bft) 100 %
_ Min-Zeit 23:10 23:10 23:10 15:20 23:50 - 04:10 - - - - - 23:10 23:10 16:10 00:10
Minimum _ 4,7 C 4,7 C 4,8 C 63 % 1010,3 hPa - 0,0 km/h (0 Bft) - - - - - 3,4 C 4,7 C 0,0 km/h (0 Bft) 81 %
_ Max-Zeit 15:30 15:10 15:30 00:00 09:10 00:00 12:10 - - 09:50 12:00 11:30 12:50 14:10 12:10 00:20
Maximum _ 13,4 C 13,3 C 13,4 C 92 % 1015,5 hPa 0,0 l/m 6,4 km/h
S-SW (2 Bft)
- - 10 min 0,152 mm 429 W/m 8,6 C 13,3 C 16,1 km/h
S-SW (3 Bft)
100 %
Durchschnitt _ 8,2 C 8,1 C 8,2 C 85 % 1013,1 hPa #0,0 l/m 1,3 km/h (1 Bft) S-SO - #4:10 h #0,737 mm 172 W/m 5,8 C 8,2 C 6,2 km/h (2 Bft) 99 %
PRIVATE WETTERSTATION BILLIGHEIM-ALLFELD - www.neckar-odenwald-wetter.de - Holger Sonntag